Regional Weather Roundup
Issued by NWS Sioux Falls, SD

Home | Current Version | Previous Version | Graphics & Text | Print | Product List | Glossary On
Versions: 1 2 3 4 5 6 7 8 9 10 11 12 13 14 15 16 17 18 19 20 21 22 23 24 25 26 27 28 29 30 31 32 33 34 35 36 37 38 39 40 41 42 43 44 45 46 47 48 49 50
581
ASUS43 KFSD 250902
RWRFSD

WEATHER ROUNDUP FOR SE SOUTH DAKOTA/SW MINNESOTA/NW IOWA
NATIONAL WEATHER SERVICE SIOUX FALLS SD
400 AM CDT WED APR 25 2018

NOTE: "FAIR" INDICATES FEW OR NO CLOUDS BELOW 12,000 FEET WITH NO
SIGNIFICANT WEATHER AND OR OBSTRUCTIONS TO VISIBILITY.


SDZ038>040-050-052>070-251000-
SOUTHEAST SOUTH DAKOTA

CITY           SKY/WX    TMP DP  RH WIND       PRES   REMARKS
BROOKINGS      CLEAR     33  28  81 N5        30.29S WCI  29
CHAMBERLAIN    CLEAR     32  32 100 W3        30.34F
HURON          CLEAR     29  27  92 NW3       30.32F
MADISON        FAIR      32  32 100 N5        30.29S WCI  27
MITCHELL       CLEAR     34  30  85 W5        30.33S WCI  30
SIOUX FALLS    CLEAR     33  27  78 N5        30.28S WCI  29
WINNER         FAIR      35  29  78 W6        30.34F
YANKTON        MOCLDY    40  33  76 NW12      30.30F
$$

MNZ071-072-080-081-089-090-097-098-251000-
SOUTHWEST MINNESOTA

CITY           SKY/WX    TMP DP  RH WIND       PRES   REMARKS
FAIRMONT       PTCLDY    37  31  78 NW8       30.24S
JACKSON        CLEAR     34  30  86 N6        30.25S WCI  29
LUVERNE        CLOUDY    36  28  75 N6        30.27S
MARSHALL       CLEAR     33  29  85 NW8       30.29S WCI  26
MONTEVIDEO     CLEAR     32  28  86 NE6       30.30S WCI  26
PIPESTONE      CLEAR    N/A N/A N/A CALM      30.26F
REDWOOD FALLS  CLEAR     35  28  75 N8        30.27S WCI  29
TRACY          CLEAR     35  32  89 NW6       30.27S WCI  30
WINDOM         CLEAR     34  19  55 NW3       30.25S
WORTHINGTON    CLEAR     34  30  85 N10       30.26S WCI  26
$$

IAZ001>003-012>014-020>022-031-032-NEZ013-014-SDZ071-251000-
NORTHWEST IOWA

CITY           SKY/WX    TMP DP  RH WIND       PRES   REMARKS
CHEROKEE       CLOUDY    40  35  81 N10G16    30.23F
DENISON        CLOUDY    45  39  81 N10       30.22R
ESTHERVILLE    CLOUDY    35  31  85 N9        30.23S WCI  28
ORANGE CITY    PTCLDY    37  36  93 N12G17    30.24F
SHELDON        CLOUDY    34  32  93 N12       30.23F WCI  25
SIOUX CITY     LGT RAIN  43  35  73 N12       30.25F
SPENCER        PTCLDY    37  31  78 N10       30.23S
STORM LAKE     CLOUDY    39  36  87 N13       30.21F
$$

ABBREVIATIONS USED IN REMARKS
   TC - TEMPERATURE IN CELSIUS
  WCI - WIND CHILL INDEX
   HX - HEAT INDEX
  VSB - VISIBILITY





USA.gov is the U.S. government's official web portal to all federal, state and local government web resources and services.